2020-09-05 00:07:37 r, 18.60m,0000000003Hz,0000149935c,0000000.325s, 021.2C,00002191
2020-09-05 00:17:38 r, 18.98m,0000000002Hz,0000213484c,0000000.463s, 021.2C,00002191
2020-09-05 00:27:39 r, 19.41m,0000000002Hz,0000318515c,0000000.691s, 021.2C,00002191
2020-09-05 00:37:37 r, 19.10m,0000000002Hz,0000238216c,0000000.517s, 020.9C,00002191
2020-09-05 00:47:39 r, 19.22m,0000000002Hz,0000266522c,0000000.578s, 020.9C,00002191
2020-09-05 00:57:38 r, 19.14m,0000000002Hz,0000248051c,0000000.538s, 020.9C,00002191
2020-09-05 01:07:37 r, 19.24m,0000000001Hz,0000274361c,0000000.595s, 020.9C,00002191
2020-09-05 01:17:38 r, 18.83m,0000000002Hz,0000186716c,0000000.405s, 020.9C,00002191
2020-09-05 01:27:40 r, 18.77m,0000000002Hz,0000176598c,0000000.383s, 020.9C,00002191
2020-09-05 01:37:37 r, 18.78m,0000000002Hz,0000177601c,0000000.385s, 020.6C,00002191
2020-09-05 01:47:40 r, 19.26m,0000000002Hz,0000276981c,0000000.601s, 020.6C,00002191
2020-09-05 01:57:38 r, 19.46m,0000000002Hz,0000334874c,0000000.727s, 020.3C,00002191
2020-09-05 02:07:37 r, 19.45m,0000000001Hz,0000332059c,0000000.721s, 020.3C,00002191
2020-09-05 02:17:40 r, 19.44m,0000000002Hz,0000327976c,0000000.712s, 019.9C,00002191
2020-09-05 02:27:38 r, 19.33m,0000000002Hz,0000295673c,0000000.642s, 019.9C,00002191
2020-09-05 02:37:37 r, 19.39m,0000000001Hz,0000315006c,0000000.684s, 019.9C,00002191
2020-09-05 02:47:38 r, 19.22m,0000000002Hz,0000266822c,0000000.579s, 019.9C,00002191
2020-09-05 02:57:39 r, 18.40m,0000000004Hz,0000125843c,0000000.273s, 019.6C,00002191
2020-09-05 03:07:37 r, 18.44m,0000000004Hz,0000130659c,0000000.284s, 019.6C,00002191
2020-09-05 03:17:39 r, 18.93m,0000000002Hz,0000205388c,0000000.446s, 019.6C,00002191
2020-09-05 03:27:38 r, 18.39m,0000000004Hz,0000123997c,0000000.269s, 019.6C,00002191
2020-09-05 03:37:37 r, 18.26m,0000000004Hz,0000110213c,0000000.239s, 019.3C,00002191
2020-09-05 03:47:38 r, 18.23m,0000000004Hz,0000107103c,0000000.232s, 019.3C,00002191
2020-09-05 03:57:40 r, 18.21m,0000000004Hz,0000105646c,0000000.229s, 019.0C,00002191
2020-09-05 04:07:37 r, 18.21m,0000000004Hz,0000105350c,0000000.229s, 019.0C,00002191
2020-09-05 04:17:40 r, 18.22m,0000000004Hz,0000106126c,0000000.230s, 018.6C,00002191
2020-09-05 04:27:38 r, 18.27m,0000000004Hz,0000111892c,0000000.243s, 018.6C,00002191
2020-09-05 04:37:37 r, 18.34m,0000000004Hz,0000119005c,0000000.258s, 018.3C,00002191
2020-09-05 04:47:38 r, 18.39m,0000000004Hz,0000124798c,0000000.271s, 018.3C,00002191
2020-09-05 04:57:39 r, 18.46m,0000000003Hz,0000132690c,0000000.288s, 018.0C,00002191
2020-09-05 05:07:37 r, 18.53m,0000000003Hz,0000142478c,0000000.309s, 018.0C,00002191
2020-09-05 05:17:39 r, 18.61m,0000000003Hz,0000152169c,0000000.330s, 018.0C,00002191
2020-09-05 05:27:38 r, 18.64m,0000000003Hz,0000157625c,0000000.342s, 018.0C,00002191
2020-09-05 05:37:37 r, 18.54m,0000000003Hz,0000144000c,0000000.313s, 018.0C,00002191
2020-09-05 05:47:38 r, 18.08m,0000000005Hz,0000093988c,0000000.204s, 018.0C,00002191
2020-09-05 05:57:40 r, 17.09m,0000000013Hz,0000037742c,0000000.082s, 017.7C,00002191
2020-09-05 06:07:37 r, 15.56m,0000000050Hz,0000009157c,0000000.020s, 017.7C,00002191
2020-09-05 06:17:40 r, 13.51m,0000000335Hz,0000000000c,0000000.000s, 017.4C,00002191
2020-09-05 06:27:38 r, 11.40m,0000002327Hz,0000000000c,0000000.000s, 017.7C,00002191
2020-09-05 06:37:37 r, 09.57m,0000012583Hz,0000000000c,0000000.000s, 017.4C,00002191
2020-09-05 06:47:40 r, 08.20m,0000044476Hz,0000000000c,0000000.000s, 017.7C,00002191
2020-09-05 06:57:38 r, 07.22m,0000109582Hz,0000000000c,0000000.000s, 017.7C,00002191
2020-09-05 07:07:37 r, 06.39m,0000236399Hz,0000000000c,0000000.000s, 017.7C,00002191
2020-09-05 07:17:38 r, 06.14m,0000296066Hz,0000000000c,0000000.000s, 017.7C,00002191
2020-09-05 07:27:39 r, 05.97m,0000346495Hz,0000000000c,0000000.000s, 018.3C,00002191
2020-09-05 07:37:37 r, 05.82m,0000398129Hz,0000000000c,0000000.000s, 019.3C,00002191
2020-09-05 07:47:39 r, 00.00m,0000490942Hz,0000000000c,0000000.000s, 020.3C,00002191
2020-09-05 07:57:38 r, 00.00m,0000549104Hz,0000000000c,0000000.000s, 021.5C,00002191
2020-09-05 08:07:37 r, 00.00m,0000596853Hz,0000000000c,0000000.000s, 022.8C,00002191
2020-09-05 08:17:38 r, 00.00m,0000596771Hz,0000000000c,0000000.000s, 023.8C,00002191
2020-09-05 08:27:40 r, 00.00m,0000596747Hz,0000000000c,0000000.000s, 024.1C,00002191
2020-09-05 08:37:37 r, 00.00m,0000596696Hz,0000000000c,0000000.000s, 024.8C,00002191
2020-09-05 08:47:40 r, 00.00m,0000596498Hz,0000000000c,0000000.000s, 025.7C,00002191
2020-09-05 08:57:38 r, 00.00m,0000596458Hz,0000000000c,0000000.000s, 027.0C,00002191
2020-09-05 09:07:37 r, 00.00m,0000596310Hz,0000000000c,0000000.000s, 029.0C,00002191
2020-09-05 09:17:40 r, 00.00m,0000596138Hz,0000000000c,0000000.000s, 030.2C,00002191
2020-09-05 09:27:38 r, 00.00m,0000596208Hz,0000000000c,0000000.000s, 029.9C,00002191
2020-09-05 09:37:37 r, 00.00m,0000596330Hz,0000000000c,0000000.000s, 029.0C,00002191
2020-09-05 09:47:38 r, 00.00m,0000596149Hz,0000000000c,0000000.000s, 029.6C,00002191
2020-09-05 09:57:40 r, 00.00m,0000595845Hz,0000000000c,0000000.000s, 031.9C,00002191
2020-09-05 10:07:37 r, 00.00m,0000595648Hz,0000000000c,0000000.000s, 033.8C,00002191
2020-09-05 10:17:39 r, 00.00m,0000595505Hz,0000000000c,0000000.000s, 034.4C,00002191
2020-09-05 10:27:38 r, 00.00m,0000595648Hz,0000000000c,0000000.000s, 034.8C,00002191
2020-09-05 10:37:37 r, 00.00m,0000595479Hz,0000000000c,0000000.000s, 035.4C,00002191
2020-09-05 10:47:40 r, 00.00m,0000595197Hz,0000000000c,0000000.000s, 037.0C,00002191
2020-09-05 10:57:38 r, 00.00m,0000595108Hz,0000000000c,0000000.000s, 038.3C,00002191
2020-09-05 11:07:37 r, 00.00m,0000594764Hz,0000000000c,0000000.000s, 039.9C,00002191
2020-09-05 11:17:40 r, 00.00m,0000594705Hz,0000000000c,0000000.000s, 041.2C,00002191
2020-09-05 11:27:38 r, 00.00m,0000594749Hz,0000000000c,0000000.000s, 040.9C,00002191
2020-09-05 11:37:37 r, 00.00m,0000594911Hz,0000000000c,0000000.000s, 039.9C,00002191
2020-09-05 11:47:38 r, 00.00m,0000595185Hz,0000000000c,0000000.000s, 038.3C,00002191
2020-09-05 11:57:39 r, 00.00m,0000595195Hz,0000000000c,0000000.000s, 038.0C,00002191
2020-09-05 12:07:37 r, 00.00m,0000595152Hz,0000000000c,0000000.000s, 038.3C,00002191
2020-09-05 12:17:39 r, 00.00m,0000595026Hz,0000000000c,0000000.000s, 039.3C,00002191
2020-09-05 12:27:38 r, 00.00m,0000594934Hz,0000000000c,0000000.000s, 039.9C,00002191
2020-09-05 12:37:37 r, 00.00m,0000594833Hz,0000000000c,0000000.000s, 039.9C,00002191
2020-09-05 12:47:37 r, 00.00m,0000594849Hz,0000000000c,0000000.000s, 040.2C,00002191
2020-09-05 12:57:40 r, 00.00m,0000594499Hz,0000000000c,0000000.000s, 042.2C,00002191
2020-09-05 13:07:37 r, 00.00m,0000594436Hz,0000000000c,0000000.000s, 043.1C,00002191
2020-09-05 13:17:37 r, 00.00m,0000594115Hz,0000000000c,0000000.000s, 044.8C,00002191
2020-09-05 13:27:38 r, 00.00m,0000594090Hz,0000000000c,0000000.000s, 045.1C,00002191
2020-09-05 13:37:37 r, 00.00m,0000593987Hz,0000000000c,0000000.000s, 045.7C,00002191
2020-09-05 13:47:37 r, 00.00m,0000593807Hz,0000000000c,0000000.000s, 046.7C,00002191
2020-09-05 13:57:39 r, 00.00m,0000593798Hz,0000000000c,0000000.000s, 046.7C,00002191
2020-09-05 14:07:37 r, 00.00m,0000593866Hz,0000000000c,0000000.000s, 045.7C,00002191
2020-09-05 14:17:37 r, 00.00m,0000593609Hz,0000000000c,0000000.000s, 047.7C,00002191
2020-09-05 14:27:40 r, 00.00m,0000593980Hz,0000000000c,0000000.000s, 046.0C,00002191
2020-09-05 14:37:37 r, 00.00m,0000594251Hz,0000000000c,0000000.000s, 043.8C,00002191
2020-09-05 14:47:37 r, 00.00m,0000594539Hz,0000000000c,0000000.000s, 042.5C,00002191
2020-09-05 14:57:40 r, 00.00m,0000594596Hz,0000000000c,0000000.000s, 041.5C,00002191
2020-09-05 15:07:37 r, 00.00m,0000594727Hz,0000000000c,0000000.000s, 040.2C,00002191
2020-09-05 15:17:38 r, 00.00m,0000595009Hz,0000000000c,0000000.000s, 039.0C,00002191
2020-09-05 15:27:38 r, 00.00m,0000595053Hz,0000000000c,0000000.000s, 038.3C,00002191
2020-09-05 15:37:37 r, 00.00m,0000594935Hz,0000000000c,0000000.000s, 038.6C,00002191
2020-09-05 15:47:38 r, 00.00m,0000594494Hz,0000000000c,0000000.000s, 041.5C,00002191
2020-09-05 15:57:38 r, 00.00m,0000594145Hz,0000000000c,0000000.000s, 044.1C,00002191
2020-09-05 16:07:38 r, 00.00m,0000594253Hz,0000000000c,0000000.000s, 044.1C,00002191
2020-09-05 16:17:38 r, 00.00m,0000594441Hz,0000000000c,0000000.000s, 042.8C,00002191
2020-09-05 16:27:40 r, 00.00m,0000594356Hz,0000000000c,0000000.000s, 043.1C,00002191
2020-09-05 16:37:38 r, 00.00m,0000594007Hz,0000000000c,0000000.000s, 045.7C,00002191
2020-09-05 16:47:38 r, 00.00m,0000594172Hz,0000000000c,0000000.000s, 045.4C,00002191
2020-09-05 16:57:40 r, 00.00m,0000594426Hz,0000000000c,0000000.000s, 043.8C,00002191
2020-09-05 17:07:38 r, 00.00m,0000594519Hz,0000000000c,0000000.000s, 042.8C,00002191
2020-09-05 17:17:38 r, 00.00m,0000594524Hz,0000000000c,0000000.000s, 042.5C,00002191
2020-09-05 17:27:38 r, 00.00m,0000594481Hz,0000000000c,0000000.000s, 042.8C,00002191
2020-09-05 17:37:39 r, 00.00m,0000594539Hz,0000000000c,0000000.000s, 042.8C,00002191
2020-09-05 17:47:38 r, 00.00m,0000594523Hz,0000000000c,0000000.000s, 042.8C,00002191
2020-09-05 17:57:39 r, 00.00m,0000594581Hz,0000000000c,0000000.000s, 042.2C,00002191
2020-09-05 18:07:38 r, 00.00m,0000594701Hz,0000000000c,0000000.000s, 041.5C,00002191
2020-09-05 18:17:38 r, 00.00m,0000594764Hz,0000000000c,0000000.000s, 040.9C,00002191
2020-09-05 18:27:38 r, 00.00m,0000594874Hz,0000000000c,0000000.000s, 040.2C,00002191
2020-09-05 18:37:40 r, 00.00m,0000595024Hz,0000000000c,0000000.000s, 039.6C,00002191
2020-09-05 18:47:38 r, 00.00m,0000595171Hz,0000000000c,0000000.000s, 038.6C,00002191
2020-09-05 18:57:40 r, 00.00m,0000595197Hz,0000000000c,0000000.000s, 038.0C,00002191
2020-09-05 19:07:38 r, 00.00m,0000595205Hz,0000000000c,0000000.000s, 037.0C,00002191
2020-09-05 19:17:38 r, 00.00m,0000475738Hz,0000000000c,0000000.000s, 036.0C,00002191
2020-09-05 19:27:38 r, 05.93m,0000360138Hz,0000000000c,0000000.000s, 035.1C,00002191
2020-09-05 19:37:39 r, 06.32m,0000250788Hz,0000000000c,0000000.000s, 033.8C,00002191
2020-09-05 19:47:38 r, 06.81m,0000160196Hz,0000000000c,0000000.000s, 032.8C,00002191
2020-09-05 19:57:39 r, 07.45m,0000088996Hz,0000000000c,0000000.000s, 031.9C,00002191
2020-09-05 20:07:38 r, 08.62m,0000029989Hz,0000000000c,0000000.000s, 031.2C,00002191
2020-09-05 20:17:38 r, 10.13m,0000007529Hz,0000000000c,0000000.000s, 030.2C,00002191
2020-09-05 20:27:38 r, 11.96m,0000001386Hz,0000000000c,0000000.000s, 029.9C,00002191
2020-09-05 20:37:40 r, 14.04m,0000000205Hz,0000000000c,0000000.000s, 029.3C,00002191
2020-09-05 20:47:38 r, 16.01m,0000000033Hz,0000013934c,0000000.030s, 029.0C,00002191
2020-09-05 20:57:40 r, 17.56m,0000000008Hz,0000058345c,0000000.127s, 028.6C,00002191
2020-09-05 21:07:39 r, 18.80m,0000000003Hz,0000182245c,0000000.395s, 028.6C,00002191
2020-09-05 21:17:38 r, 19.83m,0000000001Hz,0000466573c,0000001.013s, 028.6C,00002191
2020-09-05 21:27:40 r, 20.14m,0000000001Hz,0000621769c,0000001.349s, 028.3C,00002191
2020-09-05 21:37:39 r, 19.91m,0000000001Hz,0000503139c,0000001.092s, 028.3C,00002191
2020-09-05 21:47:38 r, 19.98m,0000000001Hz,0000536409c,0000001.164s, 028.3C,00002191
2020-09-05 21:57:39 r, 19.96m,0000000001Hz,0000524875c,0000001.139s, 028.3C,00002191
2020-09-05 22:07:39 r, 19.51m,0000000002Hz,0000349650c,0000000.759s, 028.3C,00002191
2020-09-05 22:17:38 r, 19.14m,0000000002Hz,0000249668c,0000000.542s, 028.3C,00002191
2020-09-05 22:27:39 r, 19.05m,0000000002Hz,0000228691c,0000000.496s, 028.3C,00002191
2020-09-05 22:37:39 r, 18.98m,0000000002Hz,0000215947c,0000000.469s, 028.3C,00002191
2020-09-05 22:47:38 r, 19.01m,0000000002Hz,0000220550c,0000000.479s, 028.6C,00002191
2020-09-05 22:57:40 r, 18.87m,0000000002Hz,0000192606c,0000000.418s, 028.6C,00002191
2020-09-05 23:07:39 r, 18.87m,0000000003Hz,0000194062c,0000000.421s, 028.6C,00002191
2020-09-05 23:17:38 r, 18.87m,0000000003Hz,0000194048c,0000000.421s, 028.6C,00002191
2020-09-05 23:27:40 r, 18.95m,0000000003Hz,0000208460c,0000000.452s, 028.6C,00002191
2020-09-05 23:37:39 r, 18.84m,0000000003Hz,0000188342c,0000000.409s, 028.6C,00002191
2020-09-05 23:47:38 r, 18.51m,0000000003Hz,0000138346c,0000000.300s, 028.6C,00002191
2020-09-05 23:57:39 r, 18.59m,0000000003Hz,0000149691c,0000000.325s, 028.6C,00002191
